Location: Newark
(58.8333°N, 23.5833°E)
Time: 19:26:30
(UTC+00:00)

S-56A Canister/Altair - Pass Details

Date: 22 November 2019
Orbit: 633 x 2499 km, 38.9° (Epoch: 04 December)

Event Time Altitude Azimuth Distance (km) Brightness Sun altitude
Rises 15:51:54 0° 233° (SW) 5,169 13.1 -14.6°
Reaches altitude 10° 15:57:05 10° 216° (SW) 3,777 11.8 -15.3°
Maximum altitude 16:02:30 17° 181° (S) 2,817 10.5 -16.0°
Drops below altitude 10° 16:06:53 10° 143° (SE) 2,948 10.3 -16.5°
Enters shadow 16:08:33 - 132° (SE) 3,237 10.4 -16.7°
